• En España
  • Lista de países
  • Para 7 días
  • Temperatura del agua
  • Mapa Satelital
  • El tiempo en el mapa
  • Informadores
  • user-avatar
    Iniciar sesión

    Tiempo cada hora Nikolaevskoe-Zhalniki

    Hoy, 16 Agosto, Jueves

    Tiempo Temperatura Precipitaciones Viento Presión Humedad
    00:00 +15°C° 0 mm 1 mps 745 mmHg 98%
    01:00 +14°C° 0 mm 1 mps 745 mmHg 98%
    02:00 +14°C° 0 mm 1 mps 746 mmHg 98%
    03:00 +14°C° 0 mm 1 mps 746 mmHg 98%
    04:00 +13°C° 0 mm 2 mps 747 mmHg 98%
    05:00 +13°C° 0 mm 2 mps 747 mmHg 98%
    06:00 +14°C° 0 mm 2 mps 747 mmHg 93%
    07:00 +15°C° 0 mm 2 mps 748 mmHg 89%
    08:00 +16°C° 0 mm 2 mps 748 mmHg 85%
    09:00 +18°C° 0 mm 2 mps 748 mmHg 74%
    10:00 +19°C° 0 mm 2 mps 749 mmHg 64%
    11:00 +21°C° 0 mm 2 mps 749 mmHg 54%
    12:00 +23°C° 0 mm 2 mps 749 mmHg 51%
    13:00 +23°C° 0 mm 2 mps 750 mmHg 49%
    14:00 +24°C° 0 mm 2 mps 750 mmHg 46%
    15:00 +24°C° 0 mm 1 mps 750 mmHg 50%
    16:00 +23°C° 0 mm 1 mps 750 mmHg 53%
    17:00 +23°C° 0 mm 1 mps 750 mmHg 57%
    18:00 +21°C° 0 mm 1 mps 750 mmHg 63%
    19:00 +19°C° 0 mm 1 mps 751 mmHg 69%
    20:00 +15°C° 0 mm 1 mps 751 mmHg 76%
    21:00 +15°C° 0 mm 1 mps 751 mmHg 78%
    22:00 +14°C° 0 mm 1 mps 752 mmHg 80%
    23:00 +13°C° 0 mm 1 mps 752 mmHg 82%

    Mañana, 17 Agosto, Viernes

    Tiempo Temperatura Precipitaciones Viento Presión Humedad
    00:00 +12°C° 0 mm 0 mps 752 mmHg 83%
    01:00 +11°C° 0 mm 0 mps 753 mmHg 85%
    02:00 +11°C° 0 mm 0 mps 753 mmHg 87%
    03:00 +11°C° 0 mm 0 mps 753 mmHg 87%
    04:00 +11°C° 0 mm 0 mps 753 mmHg 87%
    05:00 +11°C° 0 mm 0 mps 754 mmHg 87%
    06:00 +13°C° 0 mm 0 mps 754 mmHg 79%
    07:00 +16°C° 0 mm 0 mps 754 mmHg 71%
    08:00 +18°C° 0 mm 0 mps 754 mmHg 64%
    09:00 +22°C° 0 mm 1 mps 754 mmHg 58%
    10:00 +23°C° 0 mm 1 mps 754 mmHg 52%
    11:00 +25°C° 0 mm 1 mps 754 mmHg 47%
    12:00 +25°C° 0 mm 1 mps 754 mmHg 45%
    13:00 +25°C° 0 mm 1 mps 754 mmHg 44%
    14:00 +26°C° 0 mm 1 mps 753 mmHg 42%
    15:00 +25°C° 0 mm 1 mps 753 mmHg 47%
    16:00 +25°C° 0 mm 1 mps 753 mmHg 51%
    17:00 +24°C° 0 mm 1 mps 753 mmHg 55%
    18:00 +22°C° 0 mm 1 mps 753 mmHg 61%
    19:00 +20°C° 0 mm 1 mps 753 mmHg 67%
    20:00 +16°C° 0 mm 1 mps 753 mmHg 73%
    21:00 +16°C° 0 mm 1 mps 753 mmHg 75%
    22:00 +15°C° 0 mm 1 mps 753 mmHg 78%
    23:00 +14°C° 0 mm 1 mps 753 mmHg 80%

    Pasado mañana, 18 Agosto, Sábado

    Tiempo Temperatura Precipitaciones Viento Presión Humedad
    00:00 +14°C° 0 mm 1 mps 753 mmHg 81%
    01:00 +13°C° 0 mm 1 mps 753 mmHg 82%
    02:00 +13°C° 0 mm 1 mps 754 mmHg 83%
    03:00 +12°C° 0 mm 1 mps 754 mmHg 84%
    04:00 +12°C° 0 mm 1 mps 754 mmHg 85%
    05:00 +12°C° 0 mm 1 mps 754 mmHg 86%
    06:00 +14°C° 0 mm 2 mps 754 mmHg 80%
    07:00 +16°C° 0 mm 2 mps 754 mmHg 73%
    08:00 +18°C° 0 mm 2 mps 754 mmHg 66%
    09:00 +20°C° 0 mm 2 mps 754 mmHg 60%
    10:00 +23°C° 0 mm 2 mps 754 mmHg 54%
    11:00 +25°C° 0 mm 2 mps 753 mmHg 48%
    12:00 +25°C° 0 mm 3 mps 753 mmHg 47%
    13:00 +26°C° 0 mm 3 mps 753 mmHg 45%
    14:00 +26°C° 0 mm 3 mps 752 mmHg 44%
    15:00 +26°C° 0 mm 2 mps 752 mmHg 49%
    16:00 +25°C° 0 mm 2 mps 752 mmHg 53%
    17:00 +25°C° 0 mm 2 mps 752 mmHg 58%
    18:00 +23°C° 0 mm 2 mps 752 mmHg 65%
    19:00 +20°C° 0 mm 2 mps 751 mmHg 73%
    20:00 +17°C° 0 mm 2 mps 751 mmHg 80%
    21:00 +17°C° 0 mm 2 mps 751 mmHg 83%
    22:00 +16°C° 0 mm 2 mps 751 mmHg 85%
    23:00 +16°C° 0 mm 2 mps 751 mmHg 87%

    19 Agosto, Domingo

    Tiempo Temperatura Precipitaciones Viento Presión Humedad
    00:00 +15°C° 0 mm 2 mps 751 mmHg 88%
    01:00 +15°C° 0 mm 2 mps 751 mmHg 89%
    02:00 +14°C° 0 mm 2 mps 751 mmHg 90%
    03:00 +14°C° 0 mm 2 mps 751 mmHg 90%
    04:00 +14°C° 0 mm 2 mps 751 mmHg 90%
    05:00 +14°C° 0 mm 2 mps 750 mmHg 90%
    06:00 +16°C° 0 mm 3 mps 750 mmHg 84%
    07:00 +18°C° 0 mm 3 mps 750 mmHg 78%
    08:00 +19°C° 0 mm 3 mps 749 mmHg 72%
    09:00 +21°C° 0 mm 4 mps 749 mmHg 67%
    10:00 +23°C° 0 mm 4 mps 749 mmHg 62%
    11:00 +25°C° 0 mm 4 mps 748 mmHg 58%
    12:00 +25°C° 0,4 mm 4 mps 748 mmHg 63%
    13:00 +25°C° 0,4 mm 4 mps 747 mmHg 68%
    14:00 +25°C° 0,4 mm 4 mps 747 mmHg 73%
    15:00 +23°C° 0,9 mm 4 mps 746 mmHg 78%
    16:00 +22°C° 0,9 mm 3 mps 746 mmHg 83%
    17:00 +22°C° 0,9 mm 3 mps 746 mmHg 89%
    18:00 +21°C° 1,2 mm 3 mps 746 mmHg 91%
    19:00 +20°C° 1,2 mm 3 mps 746 mmHg 94%
    20:00 +18°C° 1,2 mm 2 mps 746 mmHg 96%
    21:00 +18°C° 0 mm 2 mps 746 mmHg 96%
    22:00 +17°C° 0 mm 2 mps 746 mmHg 97%
    23:00 +16°C° 0 mm 2 mps 746 mmHg 97%

    20 Agosto, Lunes

    Tiempo Temperatura Precipitaciones Viento Presión Humedad
    00:00 +16°C° 0,3 mm 2 mps 746 mmHg 97%
    01:00 +16°C° 0,3 mm 2 mps 747 mmHg 97%
    02:00 +16°C° 0,3 mm 2 mps 747 mmHg 98%
    03:00 +15°C° 0,1 mm 2 mps 747 mmHg 98%
    04:00 +15°C° 0,1 mm 2 mps 747 mmHg 98%
    05:00 +15°C° 0,1 mm 2 mps 747 mmHg 98%
    06:00 +15°C° 0 mm 2 mps 748 mmHg 94%
    07:00 +16°C° 0 mm 2 mps 748 mmHg 91%
    08:00 +17°C° 0 mm 2 mps 748 mmHg 87%
    09:00 +18°C° 0 mm 2 mps 748 mmHg 77%
    10:00 +19°C° 0 mm 3 mps 748 mmHg 68%
    11:00 +21°C° 0 mm 3 mps 748 mmHg 58%
    12:00 +21°C° 0 mm 3 mps 748 mmHg 55%
    13:00 +22°C° 0 mm 3 mps 748 mmHg 53%
    14:00 +23°C° 0 mm 2 mps 748 mmHg 50%
    15:00 +23°C° 0 mm 2 mps 748 mmHg 53%
    16:00 +21°C° 0 mm 2 mps 748 mmHg 55%
    17:00 +22°C° 0 mm 1 mps 748 mmHg 57%
    18:00 +20°C° 0 mm 1 mps 748 mmHg 63%
    19:00 +18°C° 0 mm 1 mps 748 mmHg 69%
    20:00 +15°C° 0 mm 1 mps 748 mmHg 75%
    21:00 +14°C° 0 mm 1 mps 748 mmHg 76%
    22:00 +12°C° 0 mm 0 mps 748 mmHg 78%
    23:00 +11°C° 0 mm 0 mps 748 mmHg 80%

    21 Agosto, Martes

    Tiempo Temperatura Precipitaciones Viento Presión Humedad
    00:00 +11°C° 0 mm 0 mps 748 mmHg 81%
    01:00 +11°C° 0 mm 0 mps 747 mmHg 81%
    02:00 +10°C° 0 mm 0 mps 747 mmHg 82%
    03:00 +12°C° 0 mm 1 mps 747 mmHg 83%
    04:00 +12°C° 0 mm 1 mps 747 mmHg 83%
    05:00 +12°C° 0 mm 1 mps 746 mmHg 84%
    06:00 +13°C° 0 mm 2 mps 746 mmHg 78%
    07:00 +15°C° 0 mm 2 mps 745 mmHg 73%
    08:00 +17°C° 0 mm 3 mps 745 mmHg 68%
    09:00 +18°C° 0 mm 3 mps 744 mmHg 64%
    10:00 +20°C° 0 mm 4 mps 744 mmHg 61%
    11:00 +21°C° 0 mm 5 mps 743 mmHg 57%
    12:00 +21°C° 0,4 mm 4 mps 743 mmHg 63%
    13:00 +20°C° 0,4 mm 4 mps 742 mmHg 69%
    14:00 +20°C° 0,4 mm 4 mps 742 mmHg 74%
    15:00 +19°C° 0,4 mm 4 mps 741 mmHg 80%
    16:00 +19°C° 0,4 mm 4 mps 741 mmHg 86%
    17:00 +18°C° 0,4 mm 4 mps 741 mmHg 92%
    18:00 +17°C° 0,2 mm 4 mps 741 mmHg 93%
    19:00 +17°C° 0,2 mm 4 mps 741 mmHg 94%
    20:00 +17°C° 0,2 mm 4 mps 741 mmHg 95%
    21:00 +16°C° 0 mm 3 mps 741 mmHg 95%
    22:00 +14°C° 0 mm 3 mps 742 mmHg 94%
    23:00 +13°C° 0 mm 3 mps 742 mmHg 94%
    Mostrar más